Regional Weather Roundup
Issued by NWS

Home | Current Version | Previous Version | Text Only | Print | Product List | Glossary On
Versions: 1 2 3 4 5 6 7 8 9 10 11 12 13 14 15 16 17 18 19 20 21 22 23 24 25 26 27 28 29 30 31 32 33 34 35 36 37 38 39 40 41 42 43 44 45 46 47 48 49 50
990
ASUS44 KLIX 220210
RWRLA
LOUISIANA WEATHER ROUNDUP
NATIONAL WEATHER SERVICE NEW ORLEANS LA
900 PM CDT SUN SEP 21 2014

NOTE: "FAIR" INDICATES FEW OR NO CLOUDS BELOW 12,000 FEET WITH NO
      SIGNIFICANT WEATHER AND/OR OBSTRUCTIONS TO VISIBILITY.
      SKY/WX - SKY CONDITION AND SIGNIFICANT WEATHER.
      TMP - AIR TEMPERATURE.    DP   - DEWPOINT TEMPERATURE.
      RH  - RELATIVE HUMIDITY.  PRES - PRESSURE.
      HX  - HEAT INDEX.         WCI  - WIND CHILL INDEX.

*  THESE STATIONS ARE NOT NWS OR FAA STATIONS AND ARE NOT UNDER
   NWS QUALITY CONTROL.

LAZ040-048-061>063-065-066-069-220300-
SOUTHEAST LOUISIANA

CITY           SKY/WX    TMP DP  RH WIND       PRES   REMARKS
N.O. AUDUBON   NOT AVBL
N.O. INTL ARPT PTCLDY    80  65  59 SE5       29.99R
N.O. LAKEFRONT CLEAR     81  69  67 SE7       30.00R
N.O. DOWNTOWN* FAIR      82  66  57 SE3       30.00S
SLIDELL        CLEAR     73  70  90 N5        30.00R
BATON ROUGE    CLEAR     74  69  85 CALM      30.00R
BOOTHVILLE     CLEAR     81  73  76 E7        30.00R
BELLE CHASSE   CLEAR     73  68  84 CALM      29.99R
BOGALUSA*        N/A     73  69  87 CALM      30.02R
GALLIANO*      NOT AVBL
NEW ROADS*     FAIR      75  72  91 CALM      30.01R
GONZALES*      FAIR      72  72 100 CALM      30.00R
HAMMOND*       CLEAR     75  68  78 CALM      30.02R
HOUMA*         CLEAR     74  65  74 CALM      29.99R
PORT FOURCHON* CLEAR     81  73  78 E8        30.02R

$$

LAZ041-044-053-054-220300-
SOUTHWEST LOUISIANA

CITY           SKY/WX    TMP DP  RH WIND       PRES   REMARKS
LAKE CHARLES   CLEAR     75  71  87 CALM      30.00R
LAFAYETTE      CLEAR     77  74  90 CALM      30.00R
PATTERSON      CLEAR     72  70  94 CALM      30.02R
SALT POINT       N/A     77  71  82 CALM      29.99R
NEW IBERIA     CLEAR     77  71  82 CALM      30.00R
CHENAULT AIRPK CLEAR     79  72  78 CALM      30.01R

$$

LAZ027-028-220300-
CENTRAL LOUISIANA

CITY           SKY/WX    TMP DP  RH WIND       PRES   REMARKS
FORT POLK      CLEAR     76  72  87 CALM      30.02R
ALEXANDRIA INT CLEAR     75  71  87 CALM      30.00R
ALEXANDRIA     CLEAR     75  72  90 CALM      30.02R

$$

LAZ001-002-220300-
NORTHWEST LOUISIANA

CITY           SKY/WX    TMP DP  RH WIND       PRES   REMARKS
SHREVEPORT     CLEAR     84  66  54 N6        30.02R
BARKSDALE AFB  CLEAR     76  68  76 NE5       30.03R
DTN SHREVEPORT CLEAR     82  67  60 N5        30.02R

$$

LAZ014-016-220300-
NORTHEAST LOUISIANA

CITY           SKY/WX    TMP DP  RH WIND       PRES   REMARKS
MONROE         CLEAR     77  71  82 CALM      30.01R
TALLULAH       PTCLDY    75  70  84 CALM      30.00R

$$




USA.gov is the U.S. government's official web portal to all federal, state and local government web resources and services.